Columbus AFB, MS

4:55 AM CDT on April 22, 2018 (GMT -0500)
Columbus Air Force Base

Weather History for KCBM - February, 2013

Change the Weather History Date:

Tuesday, February 5, 2013

  Actual Average Record
Temperature  
Mean Temperature 51 °F -  
Max Temperature 61 °F 54 °F 78 °F (2008)
Min Temperature 41 °F 36 °F 18 °F (2009)
Degree Days  
Heating Degree Days 14    
Growing Degree Days 1 (Base 50)    
Moisture  
Dew Point 44 °F    
Average Humidity 84    
Maximum Humidity 100    
Minimum Humidity 63    
Precipitation  
Precipitation 0.00 in - - ()
Sea Level Pressure  
Sea Level Pressure 30.03 in    
Wind  
Wind Speed 1 mph (South)    
Max Wind Speed 8 mph    
Max Gust Speed -    
Visibility 6 miles    
Events Fog , Rain    
Averages and records for this station are not official NWS values.
T = Trace of Precipitation, MM = Missing Value Source: NWS Daily Summary

Daily Weather History Graph

Daily Weather History Graph

Search for Another Location

Airport or City:

Astronomy

Feb. 05, 2013 Rise Set
Actual Time 6:46 AM CST 5:29 PM CST
Civil Twilight 6:21 AM CST 5:55 PM CST
Nautical Twilight 5:51 AM CST 6:24 PM CST
Astronomical Twilight 5:22 AM CST 6:53 PM CST
Moon 2:23 AM CST (2/5) 12:51 PM CST (2/5)
Length of Visible Light 11h 34m
Length of Day
10h 42m
Waning Crescent, 26% of the Moon is Illuminated
Feb 5
Waning Crescent
Feb 10
New
Feb 17
First Quarter
Feb 25
Full
Mar 4
Last Quarter

Hourly Weather History & Observations

Time (CST) Temp. Dew Point Humidity Pressure Visibility Wind Dir Wind Speed Gust Speed Precip Events Conditions
12:58 AM 45.5 °F 36.5 °F 71% 29.97 in 10.0 mi South 1.2 mph - N/A   Scattered Clouds
1:58 AM 46.4 °F 37.4 °F 71% 29.96 in 10.0 mi Calm Calm - N/A   Overcast
2:18 AM 48.2 °F 39.2 °F 71% 29.95 in 10.0 mi SSE 3.5 mph - N/A   Overcast
2:58 AM 48.0 °F 39.2 °F 72% 29.96 in 10.0 mi Calm Calm - N/A   Overcast
3:13 AM 48.2 °F 39.2 °F 71% 29.95 in 10.0 mi Calm Calm - N/A   Overcast
3:54 AM 48.2 °F 39.2 °F 71% 29.96 in 10.0 mi NNE 1.2 mph - N/A   Overcast
3:58 AM 48.0 °F 39.9 °F 74% 29.97 in 10.0 mi NNE 1.2 mph - N/A   Overcast
4:38 AM 48.2 °F 41.0 °F 76% 29.97 in 10.0 mi Calm Calm - N/A   Overcast
4:48 AM 48.2 °F 41.0 °F 76% 29.97 in 10.0 mi Calm Calm - N/A   Overcast
4:53 AM 48.2 °F 41.0 °F 76% 29.97 in 10.0 mi Calm Calm - N/A   Overcast
4:58 AM 48.0 °F 41.7 °F 79% 29.98 in 10.0 mi Calm Calm - N/A   Overcast
5:08 AM 48.2 °F 41.0 °F 76% 29.97 in 10.0 mi Calm Calm - N/A   Overcast
5:39 AM 48.2 °F 42.8 °F 82% 29.98 in 10.0 mi Calm Calm - N/A Rain Light Rain
5:48 AM 48.2 °F 42.8 °F 82% 29.99 in 10.0 mi Calm Calm - N/A   Overcast
5:58 AM 47.8 °F 43.0 °F 83% 30.00 in 10.0 mi SE 1.2 mph - 0.00 in   Overcast
6:13 AM 48.2 °F 42.8 °F 82% 29.99 in 10.0 mi ESE 2.3 mph - N/A   Overcast
6:48 AM 48.2 °F 44.6 °F 87% 29.99 in 10.0 mi ESE 3.5 mph - N/A   Overcast
6:58 AM 47.5 °F 43.7 °F 87% 30.01 in 10.0 mi ESE 2.3 mph - N/A   Overcast
7:39 AM 48.2 °F 42.8 °F 82% 30.01 in 10.0 mi East 2.3 mph - N/A   Overcast
7:58 AM 48.6 °F 42.8 °F 80% 30.03 in 10.0 mi ESE 1.2 mph - N/A   Overcast
8:03 AM 48.2 °F 42.8 °F 82% 30.02 in 10.0 mi Calm Calm - N/A   Overcast
8:16 AM 50.0 °F 42.8 °F 76% 30.03 in 10.0 mi South 4.6 mph - N/A   Overcast
8:58 AM 50.5 °F 43.2 °F 76% 30.05 in 10.0 mi SSE 2.3 mph - N/A   Overcast
9:18 AM 51.8 °F 42.8 °F 71% 30.04 in 10.0 mi SSE 2.3 mph - N/A   Overcast
9:58 AM 53.1 °F 44.1 °F 71% 30.05 in 10.0 mi South 3.5 mph - N/A   Overcast
10:13 AM 53.6 °F 44.6 °F 72% 30.05 in 10.0 mi South 4.6 mph - N/A   Overcast
10:33 AM 53.6 °F 44.6 °F 72% 30.05 in 10.0 mi South 3.5 mph - N/A   Overcast
10:38 AM 53.6 °F 44.6 °F 72% 30.05 in 10.0 mi SSE 3.5 mph - N/A   Overcast
10:48 AM 55.4 °F 44.6 °F 67% 30.05 in 10.0 mi SSW 4.6 mph - N/A   Overcast
10:58 AM 55.6 °F 45.5 °F 69% 30.05 in 10.0 mi Variable 1.2 mph - N/A   Mostly Cloudy
11:48 AM 55.4 °F 46.4 °F 72% 30.04 in 10.0 mi Variable 2.3 mph - N/A   Overcast
11:58 AM 56.5 °F 46.2 °F 68% 30.05 in 10.0 mi WSW 2.3 mph - N/A   Overcast
12:58 PM 59.5 °F 46.8 °F 63% 30.02 in 10.0 mi South 5.8 mph - N/A   Overcast
1:30 PM 59.0 °F 46.4 °F 63% 30.00 in 10.0 mi SSW 5.8 mph - N/A   Mostly Cloudy
1:49 PM 59.0 °F 46.4 °F 63% 30.00 in 10.0 mi SW 6.9 mph - N/A   Scattered Clouds
1:58 PM 59.5 °F 47.7 °F 65% 30.00 in 10.0 mi SW 1.2 mph - N/A   Scattered Clouds
2:58 PM 60.1 °F 48.6 °F 66% 30.00 in 10.0 mi SSW 2.3 mph - N/A   Scattered Clouds
3:58 PM 61.2 °F 48.7 °F 64% 30.00 in 10.0 mi South 8.1 mph - N/A   Mostly Cloudy
4:58 PM 58.8 °F 49.3 °F 71% 30.00 in 10.0 mi SW 3.5 mph - N/A   Clear
5:58 PM 52.3 °F 48.7 °F 88% 30.01 in 10.0 mi Calm Calm - N/A   Clear
6:58 PM 49.3 °F 47.1 °F 92% 30.03 in 10.0 mi Calm Calm - N/A   Clear
7:18 PM 48.2 °F 46.4 °F 93% 30.03 in 2.5 mi Calm Calm - N/A   Clear
7:23 PM 46.4 °F 46.4 °F 100% 30.04 in 5.0 mi Calm Calm - N/A   Clear
7:31 PM 46.4 °F 46.4 °F 100% 30.03 in 7.0 mi Calm Calm - N/A   Clear
7:55 PM 46.4 °F 46.4 °F 100% 30.05 in 6.0 mi Calm Calm - N/A   Clear
7:57 PM 46.4 °F 46.4 °F 100% 30.05 in 6.0 mi Calm Calm - N/A   Clear
8:21 PM 46.4 °F 46.4 °F 100% 30.04 in 1.2 mi Calm Calm - N/A   Clear
8:26 PM 46.4 °F 46.4 °F 100% 30.05 in 0.5 mi Calm Calm - N/A Fog Fog
8:31 PM 44.6 °F 44.6 °F 100% 30.05 in 0.5 mi Calm Calm - N/A Fog Fog
8:36 PM 44.6 °F 44.6 °F 100% 30.05 in 0.2 mi Calm Calm - N/A Fog Fog
8:46 PM 44.6 °F 44.6 °F 100% 30.05 in 0.2 mi Calm Calm - N/A Fog Fog
8:51 PM 44.6 °F 44.6 °F 100% 30.05 in 0.2 mi Calm Calm - N/A Fog Fog
8:56 PM 44.6 °F 44.6 °F 100% 30.06 in 0.2 mi Calm Calm - N/A Fog Fog
8:59 PM 44.6 °F 44.6 °F 100% 30.07 in 0.2 mi Calm Calm - N/A Fog Fog
9:09 PM 44.6 °F 44.6 °F 100% 30.06 in 0.5 mi Calm Calm - N/A Fog Fog
9:14 PM 42.8 °F 42.8 °F 100% 30.06 in 0.2 mi Calm Calm - N/A Fog Fog
9:58 PM 42.1 °F 41.7 °F 99% 30.07 in 0.2 mi Calm Calm - N/A Fog Fog
10:03 PM 41.0 °F 41.0 °F 100% 30.06 in 0.5 mi Calm Calm - N/A Fog Fog
10:13 PM 42.8 °F 42.8 °F 100% 30.06 in 0.5 mi Calm Calm - N/A Fog Fog
10:15 PM 42.8 °F 41.0 °F 93% 30.07 in 0.5 mi Calm Calm - N/A Fog Fog
10:20 PM 42.8 °F 42.8 °F 100% 30.06 in 1.5 mi Calm Calm - N/A   Scattered Clouds
10:25 PM 42.8 °F 41.0 °F 93% 30.06 in 2.5 mi Calm Calm - N/A   Mostly Cloudy
10:30 PM 42.8 °F 42.8 °F 100% 30.06 in 0.8 mi Calm Calm - N/A   Mist
10:35 PM 42.8 °F 42.8 °F 100% 30.06 in 0.2 mi Calm Calm - N/A Fog Fog
10:50 PM 42.8 °F 42.8 °F 100% 30.07 in 0.2 mi Calm Calm - N/A Fog Fog
10:58 PM 42.8 °F 42.8 °F 100% 30.08 in 0.2 mi Calm Calm - 0.00 in Fog Fog
11:10 PM 42.8 °F 42.8 °F 100% 30.07 in 0.2 mi Calm Calm - N/A Fog Fog
11:55 PM 42.8 °F 42.8 °F 100% 30.07 in 0.5 mi Calm Calm - N/A Fog Fog
11:58 PM 42.8 °F 42.8 °F 100% 30.08 in 0.5 mi Calm Calm - N/A Fog Fog